| time (UTC) | temp C | wind direction | speed KPH | gust KPH | rain 1hr cm | rain 24hr cm | rain mn cm | humidity % | barometer mb |
| 20260502161558 | 10 | 288 | 1.6 | 8.0 | 0.00 | 0.00 | 0.00 | 45 | 1017.5 |
| 20260502151606 | 7 | 270 | 0.0 | 3.2 | 0.00 | 0.00 | 0.00 | 51 | 1017.9 |
| 20260502123011 | -1 | 268 | 1.6 | 14.5 | 0.00 | 0.00 | 0.00 | 71 | 1018.2 |
| 20260502121511 | 0 | 208 | 0.0 | 3.2 | 0.00 | 0.00 | 0.00 | 68 | 1018.1 |
| 20260502114506 | 0 | 208 | 0.0 | 4.8 | 0.00 | 0.00 | 0.00 | 71 | 1018.3 |
| 20260502113004 | 0 | 208 | 1.6 | 6.4 | 0.00 | 0.00 | 0.00 | 69 | 1018.2 |
| 20260502111503 | 0 | 208 | 0.0 | 0.0 | 0.00 | 0.00 | 0.00 | 68 | 1018.2 |
| 20260502110002 | 0 | 208 | 0.0 | 0.0 | 0.00 | 0.00 | 0.00 | 69 | 1018.1 |
| 20260502104610 | 0 | 208 | 0.0 | 0.0 | 0.00 | 0.00 | 0.00 | 69 | 1018.2 |
| 20260502103059 | 0 | 208 | 0.0 | 0.0 | 0.00 | 0.00 | 0.00 | 65 | 1018.3 |
| 20260502101610 | 1 | 208 | 0.0 | 6.4 | 0.00 | 0.00 | 0.00 | 65 | 1018.2 |
| 20260502070054 | 3 | 215 | 0.0 | 1.6 | 0.00 | 0.00 | 0.00 | 58 | 1017.8 |
| 20260502064533 | 3 | 215 | 1.6 | 6.4 | 0.00 | 0.00 | 0.00 | 61 | 1017.7 |
| 20260502063034 | 3 | 215 | 4.8 | 6.4 | 0.00 | 0.00 | 0.00 | 60 | 1017.5 |
| 20260502061528 | 3 | 215 | 3.2 | 6.4 | 0.00 | 0.00 | 0.00 | 59 | 1017.6 |
| 20260502060036 | 4 | 215 | 0.0 | 3.2 | 0.00 | 0.00 | 0.00 | 56 | 1017.5 |
| 20260502054538 | 3 | 215 | 4.8 | 9.7 | 0.00 | 0.00 | 0.00 | 59 | 1017.5 |
| 20260502053024 | 4 | 216 | 6.4 | 8.0 | 0.00 | 0.00 | 0.00 | 54 | 1017.4 |
| 20260502051524 | 5 | 216 | 0.0 | 6.4 | 0.00 | 0.00 | 0.00 | 54 | 1017.3 |
| 20260502050024 | 5 | 216 | 3.2 | 8.0 | 0.00 | 0.00 | 0.00 | 52 | 1017.3 |
| 20260502044522 | 5 | 217 | 1.6 | 6.4 | 0.00 | 0.00 | 0.00 | 49 | 1017.3 |
| 20260502043023 | 6 | 217 | 0.0 | 0.0 | 0.00 | 0.00 | 0.00 | 47 | 1017.3 |
| 20260502041534 | 6 | 217 | 4.8 | 9.7 | 0.00 | 0.00 | 0.00 | 46 | 1017.2 |
| 20260502040042 | 7 | 240 | 1.6 | 8.0 | 0.00 | 0.00 | 0.00 | 42 | 1016.8 |
| 20260502034520 | 9 | 140 | 3.2 | 12.9 | 0.00 | 0.00 | 0.00 | 33 | 1016.6 |
| 20260502033028 | 8 | 110 | 8.0 | 14.5 | 0.00 | 0.00 | 0.00 | 36 | 1016.4 |
| 20260502031520 | 10 | 150 | 1.6 | 9.7 | 0.00 | 0.00 | 0.00 | 32 | 1016.3 |
| 20260502030020 | 9 | 143 | 4.8 | 8.0 | 0.00 | 0.00 | 0.00 | 33 | 1016.0 |
| 20260502024519 | 8 | 188 | 4.8 | 6.4 | 0.00 | 0.00 | 0.00 | 39 | 1015.9 |
| 20260502023028 | 7 | 191 | 8.0 | 11.3 | 0.00 | 0.00 | 0.00 | 49 | 1015.7 |
| 20260502021517 | 8 | 195 | 8.0 | 11.3 | 0.00 | 0.00 | 0.00 | 46 | 1015.5 |
| 20260502020017 | 10 | 196 | 8.0 | 11.3 | 0.00 | 0.00 | 0.00 | 45 | 1015.6 |
| 20260502014518 | 10 | 201 | 6.4 | 11.3 | 0.00 | 0.00 | 0.00 | 42 | 1015.6 |
| 20260502013015 | 13 | 219 | 4.8 | 9.7 | 0.00 | 0.00 | 0.00 | 35 | 1015.6 |
| 20260502011515 | 15 | 301 | 1.6 | 8.0 | 0.00 | 0.00 | 0.00 | 25 | 1015.7 |
| 20260502010015 | 15 | 301 | 6.4 | 9.7 | 0.00 | 0.00 | 0.00 | 24 | 1015.8 |
| 20260502004513 | 16 | 302 | 8.0 | 12.9 | 0.00 | 0.00 | 0.00 | 23 | 1016.0 |
| 20260502003112 | 16 | 304 | 8.0 | 16.1 | 0.00 | 0.00 | 0.00 | 22 | 1015.8 |
| 20260502001511 | 16 | 275 | 9.7 | 16.1 | 0.00 | 0.00 | 0.00 | 21 | 1016.0 |
| 20260502000009 | 16 | 16 | 0.0 | 9.7 | 0.00 | 0.00 | 0.00 | 22 | 1016.0 |
| 20260501234512 | 16 | 261 | 3.2 | 16.1 | 0.00 | 0.00 | 0.00 | 22 | 1016.0 |
| 20260501233008 | 16 | 336 | 1.6 | 12.9 | 0.00 | 0.00 | 0.00 | 24 | 1016.1 |
| 20260501231505 | 16 | 300 | 12.9 | 19.3 | 0.00 | 0.00 | 0.00 | 23 | 1016.1 |
| 20260501230004 | 15 | 224 | 4.8 | 12.9 | 0.00 | 0.00 | 0.00 | 23 | 1016.2 |
| 20260501224502 | 15 | 355 | 8.0 | 16.1 | 0.00 | 0.00 | 0.00 | 23 | 1016.1 |
| 20260501223002 | 15 | 284 | 3.2 | 16.1 | 0.00 | 0.00 | 0.00 | 23 | 1016.3 |
| 20260501221611 | 15 | 13 | 3.2 | 12.9 | 0.00 | 0.00 | 0.00 | 23 | 1016.4 |
| 20260501220105 | 15 | 306 | 1.6 | 12.9 | 0.00 | 0.00 | 0.00 | 25 | 1016.6 |
| 20260501214554 | 15 | 39 | 4.8 | 9.7 | 0.00 | 0.00 | 0.00 | 26 | 1016.8 |
| 20260501213052 | 15 | 273 | 6.4 | 11.3 | 0.00 | 0.00 | 0.00 | 25 | 1017.0 |
| 20260501211551 | 15 | 296 | 3.2 | 12.9 | 0.00 | 0.00 | 0.00 | 24 | 1017.3 |
| 20260501210048 | 14 | 313 | 1.6 | 8.0 | 0.00 | 0.00 | 0.00 | 22 | 1017.5 |
| 20260501204547 | 14 | 63 | 1.6 | 16.1 | 0.00 | 0.00 | 0.00 | 27 | 1017.7 |
| 20260501203043 | 14 | 323 | 1.6 | 9.7 | 0.00 | 0.00 | 0.00 | 30 | 1017.7 |
| 20260501201542 | 13 | 247 | 4.8 | 12.9 | 0.00 | 0.00 | 0.00 | 33 | 1017.7 |
| 20260501200039 | 13 | 306 | 6.4 | 12.9 | 0.00 | 0.00 | 0.00 | 37 | 1017.9 |
| 20260501194535 | 12 | 299 | 1.6 | 12.9 | 0.00 | 0.00 | 0.00 | 34 | 1018.1 |
| 20260501193037 | 12 | 304 | 1.6 | 9.7 | 0.00 | 0.00 | 0.00 | 35 | 1018.2 |
| 20260501191533 | 12 | 311 | 3.2 | 12.9 | 0.00 | 0.00 | 0.00 | 35 | 1018.3 |
| 20260501190031 | 12 | 317 | 4.8 | 9.7 | 0.00 | 0.00 | 0.00 | 38 | 1018.5 |
| 20260501184529 | 12 | 81 | 3.2 | 9.7 | 0.00 | 0.00 | 0.00 | 40 | 1018.6 |
| 20260501183024 | 11 | 188 | 3.2 | 8.0 | 0.00 | 0.00 | 0.00 | 40 | 1018.9 |
| 20260501181521 | 11 | 58 | 1.6 | 9.7 | 0.00 | 0.00 | 0.00 | 40 | 1019.0 |
| 20260501180018 | 10 | 303 | 4.8 | 14.5 | 0.00 | 0.00 | 0.00 | 44 | 1019.3 |
| 20260501174515 | 10 | 306 | 6.4 | 14.5 | 0.00 | 0.00 | 0.00 | 43 | 1019.5 |
| 20260501173022 | 9 | 296 | 4.8 | 12.9 | 0.00 | 0.00 | 0.00 | 46 | 1019.6 |
| 20260501171512 | 9 | 32 | 3.2 | 12.9 | 0.00 | 0.00 | 0.00 | 48 | 1019.8 |
| 20260501170008 | 8 | 294 | 3.2 | 11.3 | 0.00 | 0.00 | 0.00 | 52 | 1019.7 |
| 20260501164504 | 8 | 292 | 1.6 | 11.3 | 0.00 | 0.00 | 0.00 | 54 | 1019.9 |
| 20260501163002 | 7 | 277 | 1.6 | 9.7 | 0.00 | 0.00 | 0.00 | 56 | 1019.9 |